KO5MO-4 Weather Reports


time (UTC)temp
C
wind
direction
speed
KPH
gust
KPH
rain 1hr
cm
rain 24hr
cm
rain mn
cm
humidity
%
barometer
mb
20260507110943 16 315 3.2 4.8 0.00 0.00 0.00 39 1007.5
20260507105443 16 225 0.0 0.0 0.00 0.00 0.00 40 1007.5
20260507104943 16 270 0.0 0.0 0.00 0.00 0.00 40 1007.5
20260507104443 16 315 1.6 3.2 0.00 0.00 0.00 40 1007.5
20260507103443 16 45 0.0 0.0 0.00 0.00 0.00 41 1007.5
20260507102943 16 180 0.0 0.0 0.00 0.00 0.00 41 1007.5
20260507100443 16 270 0.0 0.0 0.00 0.00 0.00 41 1007.5
20260507095943 16 270 0.0 0.0 0.00 0.00 0.00 40 1007.5
20260507094443 16 225 0.0 0.0 0.00 0.00 0.00 40 1007.5
20260507093943 16 225 0.0 0.0 0.00 0.00 0.00 39 1007.5
20260507091443 16 270 0.0 0.0 0.00 0.00 0.00 39 1007.5
20260507090943 16 270 0.0 0.0 0.00 0.00 0.00 38 1007.5
20260507090443 16 270 0.0 0.0 0.00 0.00 0.00 37 1007.5
20260507081443 18 0 0.0 0.0 0.00 0.00 0.00 33 1007.5
20260507080942 18 0 0.0 0.0 0.00 0.00 0.00 33 1007.5
20260507080442 18 0 0.0 0.0 0.00 0.00 0.00 32 1007.5
20260507075443 19 0 0.0 0.0 0.00 0.00 0.00 31 1007.5
20260507074943 20 315 0.0 0.0 0.00 0.00 0.00 30 1007.5
20260507074442 19 270 0.0 0.0 0.00 0.00 0.00 30 1007.5
20260507073943 20 225 0.0 0.0 0.00 0.00 0.00 30 1007.5
20260507073443 20 270 0.0 0.0 0.00 0.00 0.00 30 1007.5
20260507072943 20 270 1.6 1.6 0.00 0.00 0.00 30 1007.5
20260507071942 19 225 3.2 1.6 0.00 0.00 0.00 31 1007.5
20260507070443 18 225 0.0 0.0 0.00 0.00 0.00 33 1007.5
20260507065943 18 225 0.0 0.0 0.00 0.00 0.00 33 1007.5
20260507065443 18 225 0.0 0.0 0.00 0.00 0.00 33 1007.5
20260507064943 18 225 0.0 0.0 0.00 0.00 0.00 32 1007.5
20260507064442 18 225 0.0 0.0 0.00 0.00 0.00 32 1007.5
20260507063443 19 225 0.0 0.0 0.00 0.00 0.00 32 1007.5
20260507062442 19 225 0.0 0.0 0.00 0.00 0.00 31 1007.5
20260507061443 20 270 0.0 0.0 0.00 0.00 0.00 31 1007.5
20260507055942 21 225 0.0 0.0 0.00 0.00 0.00 30 1007.5
20260507055442 21 225 0.0 0.0 0.00 0.00 0.00 30 1007.5
20260507054942 21 225 0.0 0.0 0.00 0.00 0.00 29 1007.5
20260507054442 21 225 0.0 0.0 0.00 0.00 0.00 28 1007.5
20260507053442 21 270 0.0 0.0 0.00 0.00 0.00 28 1007.5
20260507052942 22 270 1.6 1.6 0.00 0.00 0.00 28 1007.5
20260507052443 22 270 0.0 0.0 0.00 0.00 0.00 28 1007.5
20260507051942 22 270 0.0 0.0 0.00 0.00 0.00 28 1007.5
20260507051442 22 270 0.0 0.0 0.00 0.00 0.00 28 1007.5
20260507050942 22 270 4.8 3.2 0.00 0.00 0.00 28 1007.5
20260507045942 21 270 0.0 0.0 0.00 0.00 0.00 29 1007.5
20260507044942 20 225 0.0 0.0 0.00 0.00 0.00 33 1007.5
20260507044442 20 225 0.0 0.0 0.00 0.00 0.00 32 1007.5
20260507043942 20 225 0.0 0.0 0.00 0.00 0.00 31 1007.5
20260507043442 20 225 0.0 0.0 0.00 0.00 0.00 31 1007.5
20260507042942 20 225 0.0 0.0 0.00 0.00 0.00 30 1007.5
20260507040442 21 225 0.0 0.0 0.00 0.00 0.00 28 1007.5
20260507035942 21 225 0.0 0.0 0.00 0.00 0.00 28 1007.5
20260507035442 22 225 0.0 0.0 0.00 0.00 0.00 27 1007.5
20260507034942 22 225 0.0 0.0 0.00 0.00 0.00 27 1007.5
20260507034442 22 225 0.0 0.0 0.00 0.00 0.00 26 1007.5
20260507033942 23 225 0.0 0.0 0.00 0.00 0.00 25 1007.5
20260507033442 23 225 0.0 0.0 0.00 0.00 0.00 25 1007.5
20260507032942 23 225 0.0 0.0 0.00 0.00 0.00 24 1007.5
20260507032442 23 225 0.0 0.0 0.00 0.00 0.00 24 1007.5
20260507031942 24 225 0.0 0.0 0.00 0.00 0.00 24 1007.5
20260507030942 25 225 3.2 3.2 0.00 0.00 0.00 23 1007.5
20260507030442 25 225 4.8 3.2 0.00 0.00 0.00 23 1007.5
20260507025942 25 225 4.8 3.2 0.00 0.00 0.00 22 1007.5
20260507025442 25 270 1.6 3.2 0.00 0.00 0.00 22 1007.5
20260507024942 26 270 4.8 3.2 0.00 0.00 0.00 22 1007.5
20260507023942 26 270 8.0 6.4 0.00 0.00 0.00 22 1007.5
20260507023442 26 270 8.0 3.2 0.00 0.00 0.00 22 1007.5
20260507022942 26 270 6.4 6.4 0.00 0.00 0.00 22 1007.5
20260507021442 26 225 6.4 6.4 0.00 0.00 0.00 21 1007.5
20260507020942 26 270 8.0 8.0 0.00 0.00 0.00 21 1007.5
20260507014942 28 270 6.4 4.8 0.00 0.00 0.00 19 1007.5
20260507014442 28 270 6.4 4.8 0.00 0.00 0.00 19 1007.5
20260507013442 28 225 4.8 4.8 0.00 0.00 0.00 19 1007.5
20260507012942 28 225 6.4 11.3 0.00 0.00 0.00 19 1007.5
20260507012442 28 270 9.7 6.4 0.00 0.00 0.00 19 1007.5
20260507011942 29 225 12.9 9.7 0.00 0.00 0.00 19 1007.5
20260507011442 30 270 8.0 4.8 0.00 0.00 0.00 19 1007.5
20260507010942 30 225 8.0 9.7 0.00 0.00 0.00 19 1007.5
20260507005942 30 270 8.0 6.4 0.00 0.00 0.00 18 1007.5
20260507004942 31 225 8.0 11.3 0.00 0.00 0.00 18 1007.5
20260507003942 30 270 12.9 8.0 0.00 0.00 0.00 18 1007.5
20260507003442 31 270 11.3 9.7 0.00 0.00 0.00 17 1007.5
20260507001442 31 225 8.0 11.3 0.00 0.00 0.00 17 1007.5
20260507000942 32 180 3.2 6.4 0.00 0.00 0.00 17 1007.5
20260507000442 31 180 3.2 3.2 0.00 0.00 0.00 18 1007.5
20260506235442 32 270 8.0 8.0 0.00 0.00 0.00 17 1007.5
20260506233442 31 270 3.2 3.2 0.00 0.00 0.00 18 1007.5
20260506232442 30 180 3.2 4.8 0.00 0.00 0.00 18 1007.5
20260506231942 31 45 3.2 6.4 0.00 0.00 0.00 18 1007.5
20260506231442 31 270 6.4 8.0 0.00 0.00 0.00 18 1007.5
20260506230942 31 270 8.0 8.0 0.00 0.00 0.00 17 1007.5
20260506230442 31 270 11.3 9.7 0.00 0.00 0.00 17 1007.5
20260506225942 32 315 6.4 4.8 0.00 0.00 0.00 17 1007.5
20260506225442 31 315 1.6 1.6 0.00 0.00 0.00 17 1007.5
20260506224942 30 135 6.4 3.2 0.00 0.00 0.00 18 1007.5
20260506223442 31 45 4.8 6.4 0.00 0.00 0.00 18 1007.5
20260506222942 31 180 3.2 3.2 0.00 0.00 0.00 18 1007.5
20260506220942 32 270 8.0 11.3 0.00 0.00 0.00 17 1007.5
20260506220442 31 270 6.4 6.4 0.00 0.00 0.00 18 1007.5
20260506215942 31 270 9.7 8.0 0.00 0.00 0.00 18 1007.5
20260506214442 29 135 4.8 4.8 0.00 0.00 0.00 19 1007.5
20260506213442 31 270 9.7 9.7 0.00 0.00 0.00 18 1007.5
20260506212942 30 270 9.7 9.7 0.00 0.00 0.00 18 1007.5
20260506211942 30 225 9.7 8.0 0.00 0.00 0.00 18 1007.5
20260506211442 31 270 6.4 6.4 0.00 0.00 0.00 17 1007.5
20260506210942 30 270 8.0 8.0 0.00 0.00 0.00 18 1007.5
20260506210442 29 180 1.6 0.0 0.00 0.00 0.00 19 1007.5
20260506204442 31 315 8.0 8.0 0.00 0.00 0.00 18 1007.5
20260506203942 30 315 8.0 3.2 0.00 0.00 0.00 18 1007.5
20260506203442 31 270 8.0 9.7 0.00 0.00 0.00 18 1007.5
20260506202942 30 90 4.8 4.8 0.00 0.00 0.00 19 1007.5
20260506202442 30 315 1.6 4.8 0.00 0.00 0.00 18 1007.5
20260506201442 31 45 6.4 6.4 0.00 0.00 0.00 18 1007.5
20260506200442 30 315 6.4 3.2 0.00 0.00 0.00 18 1007.5
20260506195942 30 270 1.6 3.2 0.00 0.00 0.00 19 1007.5
20260506194442 28 270 4.8 3.2 0.00 0.00 0.00 20 1007.5
20260506193942 28 180 6.4 6.4 0.00 0.00 0.00 20 1007.5
20260506192442 29 270 14.5 8.0 0.00 0.00 0.00 18 1007.5
20260506191442 29 180 8.0 4.8 0.00 0.00 0.00 19 1007.5
20260506185942 27 135 4.8 6.4 0.00 0.00 0.00 21 1007.5
20260506185442 28 180 11.3 8.0 0.00 0.00 0.00 22 1007.5
20260506184942 28 180 4.8 3.2 0.00 0.00 0.00 21 1007.5
20260506183942 27 135 4.8 6.4 0.00 0.00 0.00 22 1007.5
20260506183442 28 225 6.4 8.0 0.00 0.00 0.00 21 1007.5
20260506182442 27 225 6.4 6.4 0.00 0.00 0.00 22 1007.5
20260506180942 28 270 0.0 3.2 0.00 0.00 0.00 22 1007.5
20260506175942 28 270 4.8 6.4 0.00 0.00 0.00 22 1007.5
20260506175442 28 315 8.0 9.7 0.00 0.00 0.00 23 1007.5
20260506174442 27 270 4.8 8.0 0.00 0.00 0.00 23 1007.5
20260506173942 27 270 6.4 8.0 0.00 0.00 0.00 24 1007.5
20260506173442 26 225 3.2 3.2 0.00 0.00 0.00 25 1007.5
20260506172942 26 270 4.8 6.4 0.00 0.00 0.00 25 1007.5
20260506171442 25 180 3.2 3.2 0.00 0.00 0.00 26 1007.5
20260506170942 26 225 8.0 11.3 0.00 0.00 0.00 25 1007.5
20260506170442 25 270 3.2 6.4 0.00 0.00 0.00 26 1007.5
20260506165942 26 270 8.0 8.0 0.00 0.00 0.00 25 1007.5
20260506165442 25 270 1.6 3.2 0.00 0.00 0.00 26 1007.5
20260506164442 25 225 3.2 1.6 0.00 0.00 0.00 26 1007.5
20260506163942 25 270 4.8 9.7 0.00 0.00 0.00 26 1007.5
20260506162942 25 45 1.6 1.6 0.00 0.00 0.00 27 1007.5
20260506160442 23 180 4.8 3.2 0.00 0.00 0.00 30 1007.5
20260506155942 23 270 6.4 3.2 0.00 0.00 0.00 29 1007.5
20260506155442 22 270 1.6 0.0 0.00 0.00 0.00 31 1007.5
20260506154942 22 180 3.2 1.6 0.00 0.00 0.00 31 1007.5
20260506153442 22 135 1.6 0.0 0.00 0.00 0.00 31 1007.5
20260506152442 21 225 3.2 4.8 0.00 0.00 0.00 32 1007.5
20260506151942 21 225 1.6 0.0 0.00 0.00 0.00 33 1007.5
20260506150942 22 270 1.6 3.2 0.00 0.00 0.00 33 1007.5
20260506145442 21 225 6.4 6.4 0.00 0.00 0.00 33 1007.5
20260506142442 20 315 3.2 3.2 0.00 0.00 0.00 35 1007.5
20260506141942 20 270 8.0 4.8 0.00 0.00 0.00 35 1007.5
20260506140442 20 270 3.2 1.6 0.00 0.00 0.00 36 1007.5
20260506134442 18 270 1.6 1.6 0.00 0.00 0.00 39 1007.5
20260506133942 18 270 0.0 0.0 0.00 0.00 0.00 39 1007.5
20260506133442 17 270 0.0 0.0 0.00 0.00 0.00 41 1007.5
20260506132942 17 45 0.0 0.0 0.00 0.00 0.00 43 1007.5
20260506132442 16 270 0.0 0.0 0.00 0.00 0.00 44 1007.5
20260506131942 15 270 0.0 0.0 0.00 0.00 0.00 46 1007.5
20260506130942 15 270 0.0 1.6 0.00 0.00 0.00 48 1007.5
20260506130442 14 270 0.0 1.6 0.00 0.00 0.00 50 1007.5
20260506125442 12 270 0.0 0.0 0.00 0.00 0.00 55 1007.5
20260506124442 12 225 0.0 0.0 0.00 0.00 0.00 55 1007.5
20260506123942 12 225 0.0 0.0 0.00 0.00 0.00 55 1007.5
20260506120942 13 135 0.0 0.0 0.00 0.00 0.00 51 1007.5
20260506120442 13 225 0.0 0.0 0.00 0.00 0.00 50 1007.5
20260506115442 14 270 0.0 0.0 0.00 0.00 0.00 49 1007.5
20260506114942 14 270 0.0 0.0 0.00 0.00 0.00 49 1007.5
20260506114442 14 270 1.6 1.6 0.00 0.00 0.00 49 1007.5
20260506113942 14 225 0.0 1.6 0.00 0.00 0.00 49 1007.5
20260506113442 14 225 3.2 3.2 0.00 0.00 0.00 49 1007.5
20260506112942 14 270 0.0 0.0 0.00 0.00 0.00 49 1007.5
20260506112442 14 225 0.0 0.0 0.00 0.00 0.00 49 1007.5
20260506111942 14 225 1.6 1.6 0.00 0.00 0.00 49 1007.5